Location: Audinghen
(50.8518°N, 1.6129°E)
Time: 17:05:44
(UTC+00:00)

Cosmos 1975 Rocket - Pass Details

Date: 07 August 2020
Orbit: 603 x 635 km, 82.5° (Epoch: 25 September)

Event Time Altitude Azimuth Distance (km) Brightness Sun altitude
Rises 00:38:33 0° 346° (NNW) 2,947 7.7 -22.3°
Reaches altitude 10° 00:40:50 10° 342° (NNW) 2,033 6.6 -22.2°
Maximum altitude 00:45:14 57° 265° (W) 752 3.3 -22.1°
Enters shadow 00:45:37 55° 243° (WSW) 768 3.2 -22.0°
